一网星座-0672星 (ONEWEB-0672)

导读

ONEWEB-0672是英国OneWeb公司的低轨宽带通信卫星,于2023年3月9日由SpaceX猎鹰9号火箭在美国卡纳维拉尔角发射,属于OneWeb一期组网卫星,同批次共发射40颗。卫星重约147.5公斤,设计寿命5年,运行在低地球轨道,配备Ku/Ka波段天线,单星通信能力约7.5Gbps,为OneWeb全球卫星互联网星座提供覆盖支撑,助力实现全球宽带接入服务。

基本信息
目录编号:
55831
目录名称:
ONEWEB-0672
国际标识:
2023-029AM
轨道中心:
EARTH
卫星名称:
一网星座-0672星
卫星全名:
一网星座-0672星 (ONEWEB-0672)
卫星状态:
在轨 (已飞行1284 天)
发射日期:
2023-03-09 UTC
国别 :
英国 (GB)
星等 :
--
该卫星已列入 空间交会检测服务 Space Conjunction Data Service (SCDS) ,当前飞行风险评估等级: 无高风险
轨道信息
数据来源 国际轨道数据 AOE轨道数据
星历时间 2026-09-13T07:18:30+0800
7小时前
查看轨道信息
2026-09-10T08:00:00+0800
3天前
查看轨道信息
半长轴 7559.916km 7559.956km
偏心率 0.0001875 0.0002533
轨道倾角 87.914° 87.915°
近地点辐角 95.922° 81.852°
升交点赤经 256.924° 257.516°
平近点角 264.213° 199.087°
近地点 1180.361km 1179.904km
远地点 1183.197km 1183.734km
周期 109.027分钟 109.028分钟
每日圈数 13.207704 13.2076
详细信息
平衡模式:
三轴稳定
覆盖范围:
全球
运营商:
一网卫星公司
运营商所在国:
英国
制造商(研发单位):
一网卫星公司
制造商所在国:
英国
使用方式:
暂无
卫星简介
OneWeb卫星网络由648颗重约125公斤的微型卫星组成,运行在1200公里的轨道上。 每颗卫星都能够提供至少每秒8千兆位的吞吐量,以使用其高吞吐量的Ku频段有效载荷为家庭和移动平台提供互联网接入。该卫星仍在工作。
2D轨道图
3D轨道图
轨道高度分析图
轨道倾角分析图
轨道综合分析图
查看轨道综合分析图
交会数据列表
事件ID 空间交会对象 最接近时刻(TCA) 交会距离 交会风险概率(CRP) 交会风险指数(CRI) 操作
CDM_260913-060301-245805-583129
NOVA 1 (12458)
2026-09-13T
06:03:51+0000
2.608 km
极远距离
1.608324E-6 低风险 0.39
与全量物体交会距离演化趋势
与全量物体交会风险概率演化趋势